Hourly Data Report for June 21, 2020

OTTAWA INTL A
ONTARIO
Current Station Operator: NAVCAN

45°19'00.000" N
75°40'00.000" W
114.90 m
6106001
71628
YOW

Download Data

Hourly Data (June 2020)
Hourly Data Report for June 21, 2020
TIME Temp Definition
°C
Dew Point Definition
°C
Rel Hum Definition
%
Wind Dir Definition
10's deg

Wind Spd Definition
km/h
Visibility Definition
km
Stn Press Definition
kPa
Hmdx Definition


Wind Chill Definition


Weather Definition


00:00 18.6 15.4 81 18 5 24.1 100.03     LegendNANA
01:00 19.3 16.1 81 17 8 24.1 100.04     Mainly Clear
02:00 20.1 16.1 78 19 8 24.1 100.02 25   LegendNANA
03:00 19.6 15.9 79 20 9 24.1 99.98     LegendNANA
04:00 18.9 15.6 80 18 7 24.1 99.97     Mainly Clear
05:00 17.9 15.5 86 13 4 24.1 100.00     LegendNANA
06:00 20.3 16.8 80 17 7 24.1 100.06 25   LegendNANA
07:00 22.7 17.9 74 17 8 24.1 100.07 29   Clear
08:00 25.2 18.1 64 20 8 24.1 100.07 31   LegendNANA
09:00 27.0 17.6 56 19 9 24.1 100.06 33   LegendNANA
10:00 28.3 16.9 49 19 4 24.1 100.06 34   Clear
11:00 30.1 16.8 44 16 5 24.1 100.02 35   LegendNANA
12:00 31.4 18.3 45 18 18 24.1 99.98 38   LegendNANA
13:00 31.8 18.2 44 18 21 24.1 99.95 38   Mainly Clear
14:00 29.5 18.0 50 20 17 24.1 99.91 36   LegendNANA
15:00 30.6 18.2 47 17 13 24.1 99.86 37   LegendNANA
16:00 31.4 18.1 44 21 13 24.1 99.79 37   Mainly Clear
17:00 31.6 17.1 41 18 16 24.1 99.73 37   LegendNANA
18:00 30.4 17.6 45 20 18 24.1 99.73 36   LegendNANA
19:00 28.6 16.3 47 21 12 24.1 99.77 33   Mainly Clear
20:00 26.0 16.0 54 19 10 24.1 99.79 31   LegendNANA
21:00 24.7 16.1 58 21 9 24.1 99.83 29   LegendNANA
22:00 23.6 16.6 64 18 8 24.1 99.80 29   Clear
23:00 22.4 16.9 70 17 9 24.1 99.79 28   LegendNANA

Notes on Data Quality.

Legend

  • E = Estimated
  • M = Missing
  • NA = Not Available*
  • [empty] = Indicates an unobserved value
Date modified: